Zurück zum Katalog

SL-24 R/B

AktivPO
NORAD 40303·ROCKET BODY·🇷🇺 Russia

Gestartet Nov 6, 2014 von Dombarovsky

Loading…

Nächste Überflüge (nächste 24 Stunden)

TLE

AktuellSource: Space-Track

Epoche: Sep 14, 2026, 09:09 UTC

1 40303U 14070F   26257.38175631  .00000200  00000-0  56149-4 0  9999
2 40303  97.1501 126.2458 0946460 317.3845  35.7457 13.15356513568354

Verfolge SL-24 R/B in Echtzeit mit AllMySat

Download on the App Store